Terminal Aerodrome Forecast
Issued by NWS Norman, OK

Home | Current Version | Previous Version | Text Only | Print | Product List | Glossary On
Versions: 1 2 3 4 5 6 7 8 9 10 11 12 13 14 15 16 17 18 19 20 21 22 23 24 25 26
362
FTUS44 KOUN 230808 AAA
TAFOKC
TAF AMD
KOKC 230808Z 2308/2406 VRB03KT P6SM OVC006
     FM231400 03010KT P6SM BKN015
     FM231800 05010KT P6SM SCT040=

USA.gov is the U.S. government's official web portal to all federal, state and local government web resources and services.